Weather History for Reno, NV

Change the Weather History Date:

Thursday, December 13, 2012

  Actual Average Record
Temperature  
Mean Temperature 31 °F 35 °F  
Max Temperature 40 °F 46 °F 70 °F (1969)
Min Temperature 22 °F 25 °F -7 °F (1932)
Degree Days  
Heating Degree Days 34 30  
Month to date heating degree days 288 373  
Since 1 July heating degree days 1087 1476  
Cooling Degree Days 0 0  
Month to date cooling degree days 0 0  
Year to date cooling degree days 1272 839  
Moisture  
Dew Point 18 °F    
Average Humidity 57    
Maximum Humidity 74    
Minimum Humidity 40    
Precipitation  
Precipitation 0.00 in 0.03 in 1.02 in (1922)
Month to date precipitation 0.97 0.39  
Year to date precipitation 4.63 6.76  
Snow  
Snow 0.00 in 0.10 in 1.40 in (1948)
Month to date snowfall T 1.4  
Since 1 July snowfall 0.8 4.9  
Snow Depth 0.00 in    
Sea Level Pressure  
Sea Level Pressure 29.84 in    
Wind  
Wind Speed 2 mph (West)    
Max Wind Speed 12 mph    
Max Gust Speed 16 mph    
Visibility 10 miles    
Events      
T = Trace of Precipitation, MM = Missing Value Source: NWS Daily Summary

Daily Weather History Graph

Daily Weather History Graph

Search for Another Location

Airport:

Trip Planner

Search our weather history database for the weather conditions in past years. The results will help you decide how hot, cold, wet, or windy it might be!

Date:

Astronomy

Dec. 13, 2012 Rise Set
Actual Time 7:11 AM PST 4:35 PM PST
Civil Twilight 6:41 AM PST 5:06 PM PST
Nautical Twilight 6:07 AM PST 5:39 PM PST
Astronomical Twilight 5:34 AM PST 6:12 PM PST
Moon 7:24 AM PST (12/13) 5:23 PM PST (12/13)
Length of Visible Light 10h 25m
Length of Day
9h 24m
New Moon, 0% of the Moon is Illuminated
Dec 13
New Moon
Dec 19
First Quarter
Dec 28
Full
Jan 4
Last Quarter
Jan 11
New

Hourly Weather History & Observations

Time (PST) Temp. Windchill Dew Point Humidity Pressure Visibility Wind Dir Wind Speed Gust Speed Precip Events Conditions
12:55 AM 27.0 °F - 18.0 °F 69% 29.81 in 10.0 mi Calm Calm - N/A   Clear
1:55 AM 25.0 °F - 17.1 °F 72% 29.81 in 10.0 mi Calm Calm - N/A   Clear
2:55 AM 24.1 °F 19.7 °F 17.1 °F 75% 29.83 in 10.0 mi SW 3.5 mph - N/A   Clear
3:55 AM 24.8 °F - 17.6 °F 74% 29.79 in 10.0 mi Calm Calm - N/A   Scattered Clouds
4:55 AM 26.1 °F 20.5 °F 15.1 °F 63% 29.85 in 10.0 mi West 4.6 mph - N/A   Mostly Cloudy
5:55 AM 25.0 °F 19.3 °F 16.0 °F 69% 29.86 in 10.0 mi WNW 4.6 mph - N/A   Mostly Cloudy
6:55 AM 26.1 °F 21.9 °F 15.1 °F 63% 29.87 in 10.0 mi Variable 3.5 mph - N/A   Mostly Cloudy
7:55 AM 26.1 °F - 17.1 °F 69% 29.88 in 10.0 mi Calm Calm - N/A   Mostly Cloudy
8:55 AM 28.9 °F 23.9 °F 17.1 °F 61% 29.89 in 10.0 mi SW 4.6 mph - N/A   Scattered Clouds
9:55 AM 30.9 °F - 18.0 °F 59% 29.88 in 10.0 mi Calm Calm - N/A   Scattered Clouds
10:55 AM 34.0 °F - 18.0 °F 52% 29.86 in 10.0 mi Calm Calm - N/A   Scattered Clouds
11:55 AM 37.9 °F - 18.0 °F 45% 29.84 in 10.0 mi Calm Calm - N/A   Mostly Cloudy
12:55 PM 39.0 °F - 18.0 °F 43% 29.83 in 10.0 mi Calm Calm - N/A   Mostly Cloudy
1:55 PM 37.0 °F 30.4 °F 19.0 °F 48% 29.83 in 10.0 mi NE 9.2 mph - N/A   Mostly Cloudy
4:55 PM 35.6 °F - 19.4 °F 52% 29.79 in 10.0 mi Calm Calm - N/A   Partly Cloudy
5:55 PM 30.9 °F 27.5 °F 19.9 °F 64% 29.85 in 10.0 mi SSW 3.5 mph - N/A   Partly Cloudy
6:55 PM 30.9 °F - 19.0 °F 61% 29.85 in 10.0 mi Calm Calm - N/A   Partly Cloudy
7:55 PM 30.9 °F - 19.0 °F 61% 29.85 in 10.0 mi Calm Calm - N/A   Clear
8:55 PM 28.9 °F 22.8 °F 19.0 °F 67% 29.85 in 10.0 mi WNW 5.8 mph - N/A   Clear
9:55 PM 27.0 °F 21.6 °F 17.1 °F 66% 29.84 in 10.0 mi West 4.6 mph - N/A   Clear
10:55 PM 26.1 °F 20.5 °F 17.1 °F 69% 29.83 in 10.0 mi WNW 4.6 mph - N/A   Clear
11:55 PM 25.0 °F 19.3 °F 16.0 °F 69% 29.81 in 10.0 mi Variable 4.6 mph - N/A   Clear